User: anonymous   Login
Location: Caltech
(34.1382°N, 118.1253°W)
Time: 22:58:00
(UTC-07:00)
Language:

NOSS 3-2 (A) - Orbit

View from above orbital plane
View from above orbital plane
View from above satellite
View from above satellite

Ground track
Ground track

The orbit data is extracted from the following two-line orbital elements,

1 28095U 03054A   16176.88275434 0.00000000  00000-0  00000-0 0    01
2 28095  63.4284 144.2596 0272000 357.7349   2.2651 13.41337630    00
Epoch (UTC): 24 June 2016 21:11:09
Eccentricity: 0.0272000
inclination: 63.4284°
perigee height: 901 km
apogee height: 1308 km
right ascension of ascending node: 144.2596°
argument of perigee: 357.7349°
revolutions per day: 13.41337630
mean anomaly at epoch: 2.2651°
orbit number at epoch: 0

The dashed part of the orbit path shows where the satellite is in the earth's shadow,  

DLR